Walhalla, ND

11:04 PM CDT on April 28, 2017 (GMT -0500)
Walhalla

Weather History for K96D - April, 2014

Change the Weather History Date:

Saturday, April 12, 2014

  Actual Average (KGAF) Record (KGAF)
Temperature  
Mean Temperature 32 °F -  
Max Temperature 35 °F 52 °F 82 °F (1968)
Min Temperature 28 °F 31 °F 2 °F (1950)
Degree Days  
Heating Degree Days 34    
Moisture  
Dew Point 29 °F    
Average Humidity 95    
Maximum Humidity 100    
Minimum Humidity 64    
Precipitation  
Precipitation 0.34 in - - ()
Sea Level Pressure  
Sea Level Pressure 29.86 in    
Wind  
Wind Speed 7 mph (NNE)    
Max Wind Speed 22 mph    
Max Gust Speed 28 mph    
Visibility 9 miles    
Events Snow    
Averages and records for this station are not official NWS values.
T = Trace of Precipitation, MM = Missing Value Source: NWS Daily Summary

Daily Weather History Graph

Daily Weather History Graph

Search for Another Location

Airport or City:

Trip Planner

Search our weather history database for the weather conditions in past years. The results will help you decide how hot, cold, wet, or windy it might be!

Date:

Astronomy

Apr. 12, 2014 Rise Set
Actual Time 6:46 AM CDT 8:19 PM CDT
Civil Twilight 6:13 AM CDT 8:52 PM CDT
Nautical Twilight 5:33 AM CDT 9:32 PM CDT
Astronomical Twilight 4:49 AM CDT 10:16 PM CDT
Moon 5:48 PM CDT (4/12) 5:27 AM CDT (4/12)
Length of Visible Light 14h 38m
Length of Day
13h 32m
Waxing Gibbous, 93% of the Moon is Illuminated
Apr 12
Waxing Gibbous
Apr 15
Full
Apr 22
Last Quarter
Apr 29
New
May 6
First Quarter

Hourly Weather History & Observations

Time (CDT) Temp. Windchill Dew Point Humidity Pressure Visibility Wind Dir Wind Speed Gust Speed Precip Events Conditions
12:15 AM 28.4 °F 21.2 °F 23.0 °F 80% 29.98 in 10.0 mi NE 6.9 mph - N/A   Clear
12:35 AM 28.4 °F 21.2 °F 23.0 °F 80% 29.98 in 10.0 mi NE 6.9 mph - N/A   Clear
12:55 AM 28.4 °F 22.2 °F 23.0 °F 80% 29.97 in 10.0 mi ENE 5.8 mph - N/A   Clear
1:15 AM 28.4 °F 21.2 °F 19.4 °F 69% 29.97 in 10.0 mi NE 6.9 mph - N/A   Clear
1:35 AM 28.4 °F 22.2 °F 17.6 °F 64% 29.97 in 10.0 mi ENE 5.8 mph - N/A   Clear
1:55 AM 28.4 °F 22.2 °F 17.6 °F 64% 29.97 in 10.0 mi NE 5.8 mph - N/A   Clear
2:15 AM 28.4 °F 24.6 °F 19.4 °F 69% 29.96 in 10.0 mi NE 3.5 mph - N/A   Clear
2:35 AM 28.4 °F 22.2 °F 21.2 °F 74% 29.95 in 10.0 mi NE 5.8 mph - N/A   Clear
2:55 AM 28.4 °F 24.6 °F 23.0 °F 80% 29.95 in 10.0 mi ENE 3.5 mph - N/A   Clear
3:15 AM 28.4 °F 23.3 °F 23.0 °F 80% 29.94 in 10.0 mi NE 4.6 mph - N/A   Clear
3:35 AM 28.4 °F 23.3 °F 23.0 °F 80% 29.94 in 10.0 mi NE 4.6 mph - N/A   Clear
3:55 AM 28.4 °F 23.3 °F 23.0 °F 80% 29.93 in 10.0 mi ENE 4.6 mph - N/A   Clear
4:15 AM 28.4 °F 23.3 °F 23.0 °F 80% 29.92 in 7.0 mi ENE 4.6 mph - N/A Snow Light Snow
4:35 AM 28.4 °F 23.3 °F 23.0 °F 80% 29.92 in 5.0 mi ENE 4.6 mph - N/A Snow Light Snow
4:55 AM 28.4 °F 24.6 °F 24.8 °F 86% 29.91 in 10.0 mi ENE 3.5 mph - N/A Snow Light Snow
5:15 AM 28.4 °F 23.3 °F 24.8 °F 86% 29.91 in 5.0 mi East 4.6 mph - N/A Snow Light Snow
5:35 AM 28.4 °F 21.2 °F 26.6 °F 93% 29.90 in 4.0 mi East 6.9 mph - 0.01 in Snow Light Snow
5:55 AM 28.4 °F 20.4 °F 28.4 °F 100% 29.89 in 10.0 mi NE 8.1 mph - 0.01 in Snow Light Snow
6:15 AM 28.4 °F 21.2 °F 28.4 °F 100% 29.88 in 9.0 mi ENE 6.9 mph - N/A Snow Light Snow
6:35 AM 28.4 °F 21.2 °F 28.4 °F 100% 29.86 in 10.0 mi East 6.9 mph - N/A   Unknown
6:55 AM 28.4 °F 23.3 °F 28.4 °F 100% 29.86 in 10.0 mi ENE 4.6 mph - N/A   Unknown
7:15 AM 28.4 °F 24.6 °F 28.4 °F 100% 29.84 in 10.0 mi ENE 3.5 mph - N/A   Unknown
7:35 AM 28.4 °F 24.6 °F 28.4 °F 100% 29.84 in 10.0 mi NNE 3.5 mph - N/A   Unknown
7:55 AM 30.2 °F 25.4 °F 30.2 °F 100% 29.84 in 8.0 mi NNE 4.6 mph - N/A   Unknown
8:15 AM 28.4 °F 21.2 °F 28.4 °F 100% 29.84 in 1.2 mi NNE 6.9 mph - 0.05 in Snow Light Snow
8:35 AM 28.4 °F 24.6 °F 28.4 °F 100% 29.83 in 5.0 mi NE 3.5 mph - 0.14 in Snow Light Snow
8:55 AM 28.4 °F 22.2 °F 28.4 °F 100% 29.83 in 10.0 mi North 5.8 mph - 0.14 in Snow Light Snow
9:15 AM 28.4 °F 22.2 °F 28.4 °F 100% 29.82 in 2.5 mi North 5.8 mph - 0.03 in Snow Light Snow
9:35 AM 28.4 °F 22.2 °F 28.4 °F 100% 29.82 in 1.0 mi North 5.8 mph - 0.14 in Snow Light Snow
9:55 AM 28.4 °F 22.2 °F 28.4 °F 100% 29.81 in 10.0 mi North 5.8 mph - 0.16 in   Unknown
10:15 AM 30.2 °F - 30.2 °F 100% 29.82 in 8.0 mi Calm Calm - N/A   Unknown
10:35 AM 30.2 °F - 30.2 °F 100% 29.82 in 7.0 mi Calm Calm - 0.03 in Snow Light Snow
10:55 AM 30.2 °F 25.4 °F 30.2 °F 100% 29.80 in 5.0 mi East 4.6 mph - 0.03 in   Mist
11:15 AM 32.0 °F 28.7 °F 32.0 °F 100% 29.80 in 7.0 mi ENE 3.5 mph - N/A   Unknown
11:35 AM 32.0 °F 25.6 °F 32.0 °F 100% 29.79 in 10.0 mi ESE 6.9 mph - N/A   Unknown
11:55 AM 32.0 °F 25.6 °F 32.0 °F 100% 29.79 in 10.0 mi ESE 6.9 mph - N/A   Unknown
12:15 PM 32.0 °F 27.5 °F 32.0 °F 100% 29.79 in 10.0 mi ESE 4.6 mph - N/A   Unknown
12:35 PM 32.0 °F 25.6 °F 32.0 °F 100% 29.79 in 10.0 mi SE 6.9 mph - N/A   Unknown
12:55 PM 32.0 °F 24.2 °F 32.0 °F 100% 29.77 in 10.0 mi ESE 9.2 mph - N/A   Unknown
1:15 PM 32.0 °F 27.5 °F 32.0 °F 100% 29.76 in 10.0 mi East 4.6 mph - N/A   Unknown
1:55 PM 33.8 °F 30.8 °F 33.8 °F 100% 29.78 in 10.0 mi NW 3.5 mph - N/A   Unknown
2:15 PM 33.8 °F 30.8 °F 33.8 °F 100% 29.78 in 10.0 mi NNE 3.5 mph - N/A   Unknown
2:35 PM 33.8 °F 30.8 °F 33.8 °F 100% 29.78 in 10.0 mi North 3.5 mph - N/A   Unknown
2:55 PM 33.8 °F 29.6 °F 33.8 °F 100% 29.78 in 10.0 mi North 4.6 mph - N/A   Unknown
3:15 PM 33.8 °F 28.6 °F 33.8 °F 100% 29.78 in 10.0 mi North 5.8 mph - N/A   Unknown
3:35 PM 33.8 °F 30.8 °F 33.8 °F 100% 29.78 in 10.0 mi North 3.5 mph - N/A   Unknown
3:55 PM 33.8 °F 29.6 °F 33.8 °F 100% 29.78 in 9.0 mi NNW 4.6 mph - N/A   Unknown
4:15 PM 33.8 °F 28.6 °F 33.8 °F 100% 29.78 in 10.0 mi NW 5.8 mph - N/A   Unknown
4:35 PM 33.8 °F 27.7 °F 33.8 °F 100% 29.78 in 10.0 mi NW 6.9 mph - N/A   Unknown
4:55 PM 33.8 °F 29.6 °F 33.8 °F 100% 29.79 in 10.0 mi NW 4.6 mph - N/A   Unknown
5:15 PM 35.6 °F 30.7 °F 35.6 °F 100% 29.79 in 10.0 mi NNW 5.8 mph - N/A   Unknown
5:35 PM 35.6 °F 29.2 °F 35.6 °F 100% 29.80 in 10.0 mi NNW 8.1 mph - N/A   Unknown
5:55 PM 35.6 °F 28.6 °F 35.6 °F 100% 29.81 in 10.0 mi North 9.2 mph - N/A   Unknown
6:15 PM 35.6 °F 27.5 °F 35.6 °F 100% 29.81 in 10.0 mi NNW 11.5 mph - N/A   Unknown
6:35 PM 35.6 °F 27.5 °F 35.6 °F 100% 29.83 in 10.0 mi NNW 11.5 mph - N/A   Unknown
6:55 PM 33.8 °F 24.8 °F 33.8 °F 100% 29.84 in 10.0 mi NNW 12.7 mph - N/A   Unknown
7:15 PM 32.0 °F 22.5 °F 32.0 °F 100% 29.84 in 10.0 mi NNW 12.7 mph - N/A   Unknown
7:35 PM 32.0 °F 22.1 °F 32.0 °F 100% 29.85 in 10.0 mi NNW 13.8 mph 18.4 mph N/A   Unknown
7:55 PM 32.0 °F 22.5 °F 32.0 °F 100% 29.86 in 10.0 mi NNW 12.7 mph - N/A   Unknown
8:15 PM 32.0 °F 20.8 °F 32.0 °F 100% 29.87 in 10.0 mi NW 17.3 mph 21.9 mph N/A   Unknown
8:35 PM 32.0 °F 20.5 °F 32.0 °F 100% 29.88 in 10.0 mi NW 18.4 mph 25.3 mph N/A   Unknown
8:55 PM 32.0 °F 20.1 °F 32.0 °F 100% 29.89 in 10.0 mi NW 19.6 mph - N/A   Unknown
9:15 PM 32.0 °F 19.8 °F 32.0 °F 100% 29.90 in 10.0 mi NW 20.7 mph 25.3 mph N/A   Clear
9:35 PM 30.2 °F 18.1 °F 30.2 °F 100% 29.91 in 10.0 mi NW 18.4 mph 23.0 mph N/A   Clear
9:55 PM 30.2 °F 17.8 °F 30.2 °F 100% 29.91 in 10.0 mi NNW 19.6 mph 27.6 mph N/A   Clear
10:15 PM 30.2 °F 18.1 °F 30.2 °F 100% 29.92 in 10.0 mi NW 18.4 mph 27.6 mph N/A   Clear
10:35 PM 30.2 °F 17.4 °F 30.2 °F 100% 29.92 in 10.0 mi NW 20.7 mph 26.5 mph N/A   Clear
10:55 PM 28.4 °F 15.1 °F 28.4 °F 100% 29.93 in 10.0 mi NW 20.7 mph 26.5 mph N/A   Clear
11:15 PM 28.4 °F 14.7 °F 28.4 °F 100% 29.94 in 10.0 mi NW 21.9 mph 26.5 mph N/A   Clear
11:35 PM 28.4 °F 16.2 °F 28.4 °F 100% 29.95 in 10.0 mi NW 17.3 mph 23.0 mph N/A   Clear
11:55 PM 28.4 °F 15.1 °F 28.4 °F 100% 29.95 in 10.0 mi NW 20.7 mph 27.6 mph N/A   Clear